Location: ASU Dark Sky Observatory
(36.2504°N, 81.4125°W)
Time: 04:32:02
(UTC-04:00)

Daily predictions for brighter satellites

Satellite Brightness Start Highest point End
(mag) Time Altitude Azimuth Time Altitude Azimuth Time Altitude Azimuth
ADEOS II 3.7 04:13:02 10° NE 04:17:34 29° E 04:17:46 29° E
Cosmos 1607 4.2 04:31:10 65° ENE 04:31:10 65° ENE 04:36:48 10° NE
Resurs 1-4 Rocket 4.4 04:29:36 10° N 04:30:22 14° NNW 04:30:22 14° NNW
Cosmos 1943 4.1 04:28:46 10° N 04:34:15 46° ENE 04:39:41 10° SE
Atlas Centaur 2 3.2 04:39:52 37° SE 04:39:52 37° SE 04:43:35 10° ESE
Cosmos 2263 Rocket 2.5 04:40:13 64° ENE 04:40:13 64° ENE 04:45:16 10° NNE
Atlas 2A Centaur Rocket 4.2 04:43:06 44° S 04:43:49 45° S 05:08:22 10° ESE
Cosmos 1741 Rocket 4.2 04:51:01 66° NE 04:51:01 66° NE 04:55:34 10° NNE
CZ-4B R/B 4.5 04:47:17 10° NNE 04:50:33 32° E 04:50:33 32° E
Cosmos 1975 Rocket 4.2 04:53:21 40° NNE 04:53:21 40° NNE 04:56:18 10° NNE
Cosmos 972 Rocket 4.4 04:45:48 10° NNW 04:52:30 76° WNW 04:52:30 76° WNW
Cosmos 1437 Rocket 4.4 05:01:50 10° N 05:03:54 29° NNE 05:03:54 29° NNE
MOS 1-B 4.2 05:00:16 10° NNE 05:06:05 88° ESE 05:07:35 52° SSW
Cosmos 1850 Rocket 4.1 05:11:30 62° NW 05:11:30 62° NW 05:16:27 10° N
USA 238 DEB 4.3 05:13:49 18° S 05:18:54 54° ESE 05:25:39 10° NE
USA 238 4.3 05:13:53 18° S 05:19:00 54° ESE 05:25:46 10° NE
CZ-4B R/B 3.8 05:16:34 10° NNE 05:21:46 54° E 05:26:58 10° S
H-2A R/B 4.2 04:22:40 10° W 05:23:47 56° SSW 05:29:43 10° ESE
Cosmos 332 Rocket 3.9 05:29:54 10° NNW 05:34:43 73° ENE 05:39:29 10° SSE
Cosmos 371 Rocket 3.6 05:34:35 10° NNW 05:39:27 68° ENE 05:44:15 10° SSE
Cosmos 1570 Rocket 4.0 05:35:48 10° NNW 05:41:01 61° WSW 05:46:16 10° S
BREEZE-M R/B 3.3 05:42:05 51° WNW 05:42:37 61° NNW 05:49:59 10° NE
Okean O Rocket 1.5 05:41:06 10° N 05:45:25 65° WNW 05:47:42 27° SSW
Nadezhda 2 Rocket 4.4 05:40:24 10° N 05:46:45 77° W 05:52:58 10° S
Cosmos 2208 Rocket 4.0 05:43:15 10° NNW 05:48:27 58° WSW 05:53:31 10° S
Meteor 2-11 Rocket 4.3 05:48:45 10° S 05:54:50 83° W 06:00:55 10° N
ADEOS II 2.9 05:52:39 10° N 05:57:12 30° WNW 05:58:42 26° W
IRS-1C Rocket 4.0 05:52:20 10° N 05:57:37 76° WNW 06:02:52 10° SSW
ATLAS 3B R/B 2.8 05:51:33 16° SW 05:57:40 73° WNW 06:04:52 10° NNE
Cosmos 1975 3.4 05:54:17 10° NNW 05:58:03 36° W 06:00:55 15° SSW
CZ-4B DEB 4.2 05:54:57 10° N 06:00:19 60° WNW 06:05:40 10° SSW
Delta 2 Rocket 4.3 05:59:20 24° WSW 06:02:40 65° SSE 06:08:25 10° E
DELTA 2 R/B (1) 3.7 06:01:57 19° WNW 06:05:58 73° NNE 06:11:32 10° E
Landsat 4 3.6 06:02:56 10° S 06:06:44 80° WSW 06:10:35 10° NNW
Cosmos 1814 Rocket 4.2 06:03:23 10° NNW 06:08:34 75° ENE 06:13:45 10° SSE
Meteor 1-31 Rocket 2.6 06:05:17 10° N 06:09:09 72° WNW 06:12:58 10° SSW
Cosmos 1666 2.6 06:06:37 10° NNW 06:10:20 60° W 06:14:04 10° S
Tiangong 1 0.8 06:09:36 28° NW 06:10:49 69° NNE 06:13:28 10° ESE
Cosmos 1844 Rocket 2.7 06:09:15 10° SSW 06:14:55 87° WNW 06:20:37 10° NNE
Meteor 1-23 Rocket 4.4 06:10:54 10° S 06:16:26 76° E 06:22:01 10° NNE
ATLAS CENTAUR R/B 2.9 06:14:00 10° S 06:17:37 34° ESE 06:21:06 10° NE
Cosmos 1943 4.3 06:13:45 10° NW 06:17:53 21° W 06:22:01 10° SSW
Cosmos 1743 3.4 06:17:10 10° NNW 06:20:41 32° W 06:24:11 10° SSW
Cosmos 2263 Rocket 3.8 06:21:58 13° WNW 06:24:04 16° NW 06:27:31 10° NNW
Cosmos 304 Rocket 4.4 06:19:38 10° N 06:24:25 60° ENE 06:29:10 10° SSE
Atlas Centaur 2 2.6 06:22:30 15° WSW 06:27:07 43° S 06:31:37 10° ESE
ASTRO E2 4.1 06:23:57 11° SW 06:27:16 30° SSE 06:30:50 10° ESE
USA 215 4.4 06:23:09 10° ESE 06:29:12 42° NE 06:35:16 10° NNW
Cosmos 724 4.4 06:28:16 10° SW 06:34:19 62° WNW 06:40:18 10° NNE
Meteor 1-28 Rocket 3.1 06:33:36 10° S 06:37:17 71° WSW 06:41:03 10° NNW
Cosmos 1455 Rocket 4.3 06:35:07 10° NW 06:38:20 21° W 06:41:31 10° SW
Meteor 1-4 Rocket 3.7 06:38:36 10° NW 06:41:17 21° W 06:43:56 10° SW
NOSS 3-2 (A) 3.4 06:38:51 10° SW 06:44:44 75° WNW 06:51:13 10° NNE
Cosmos 841 Rocket 3.5 06:40:05 10° NNW 06:45:17 77° WSW 06:50:28 10° S
Feng Yun 1-1 Rocket 4.2 06:42:19 10° N 06:47:39 62° WNW 06:53:01 10° SSW
Cosmos 1486 Rocket 4.4 06:42:53 10° SW 06:47:51 42° WNW 06:52:49 10° N
Okean-O 2.7 06:44:28 10° N 06:48:49 55° WNW 06:53:08 10° SSW
ATLAS 5 CENTAUR R/B 3.3 06:45:08 10° NNW 06:51:07 57° NE 06:57:36 10° SE
CZ-3 R/B 2.5 06:53:54 10° WSW 07:08:08 47° S 07:12:32 10° ESE
